一网星座-0452星 (ONEWEB-0452 )

导读 | 豆包AI

ONEWEB-0452是英国OneWeb星座组网中的一颗低轨小卫星,于2022年2月10日成功发射入轨。OneWeb星座致力于构建全球卫星互联网系统,该卫星作为星座组网的组成部分,可为全球偏远地区及企业用户提供高速宽带接入服务,助力消除数字鸿沟。第二代OneWeb卫星后续还将增加导航定位功能,可与全球主流卫星导航系统形成竞争互补。

基本信息
目录编号:
51644
目录名称:
ONEWEB-0452
国际标识:
2022-012Y
轨道中心:
EARTH
卫星名称:
一网星座-0452星
卫星全名:
一网星座-0452星 (ONEWEB-0452 )
卫星状态:
在轨 (已飞行1493 天)
发射日期:
2022-02-10 UTC
国别 :
英国 (GB)
星等 :
--
轨道信息
数据来源 国际轨道数据 AOE轨道数据
星历时间 2026-03-14T05:46:28+0800
6小时前
查看轨道信息
2026-03-13T15:00:00+0800
21小时前
查看轨道信息
半长轴 7571.848km 7571.834km
偏心率 0.0001544 0.0001971
轨道倾角 87.915° 87.917°
近地点辐角 82.319° 47.933°
升交点赤经 24.799° 24.926°
平近点角 277.812° 273.726°
近地点 1192.541km 1192.204km
远地点 1194.881km 1195.19km
周期 109.285分钟 109.285分钟
每日圈数 13.176498 13.176535
详细信息
平衡模式:
三轴稳定
覆盖范围:
全球
运营商:
一网卫星公司
运营商所在国:
英国
制造商(研发单位):
一网卫星公司
制造商所在国:
英国
使用方式:
暂无
卫星简介
OneWeb卫星网络由648颗重约125公斤的微型卫星组成,运行在1200公里的轨道上。 每颗卫星都能够提供至少每秒8千兆位的吞吐量,以使用其高吞吐量的Ku频段有效载荷为家庭和移动平台提供互联网接入。该卫星仍在工作。
2D轨道图
3D轨道图
轨道高度分析图
轨道倾角分析图
轨道综合分析图
查看轨道综合分析图